sat.trackr.live / text

‹ back to catalog

STARLINK-31051

NORAD 58719 · 2024-002Q

PAYLOAD ACTIVE UNKNOWN

§ Identity

Operator
Country
US
Launch date
2024-01-03
Launch site
AFWTR
Launch vehicle
Mass (kg)
RCS (m²)

Purposes: comms

External: N2YO · Heavens-Above · Gunter

§ Orbital elements

Epoch: 2026-05-24T18:36:44.778528Z

Period
94.11 min
Inclination
53.1602°
Eccentricity
0.0000126
Mean motion
15.30190833 rev/d
Perigee alt
475.2 km
Apogee alt
475.3 km
Semi-major
6,853.4 km
B*
-8.4099e-6
RAAN
236.5736°
Arg perigee
53.2904°
Mean anomaly
306.8109°
Rev number
13,366

§ Raw data

STARLINK-310511 58719U 24002Q   26144.77551827 -.00000607  00000+0 -84099-5 0  99962 58719  53.1602 236.5736 0000126  53.2904 306.8109 15.30190833133662

JSON: /api/v1/satellites/58719 · /tle

For live sub-satellite position, see the globe view (requires WebGL).

§ Visibility from observer

Set your observer location to see the next 7 days of passes ≥ 10°. The values pass through the URL so the page stays shareable.

No JS? Fill the form by hand. The geolocation button needs JavaScript.